Other Public Products
Issued by NWS Charleston, SC

Current Version | Previous Version | Graphics & Text | Print | Product List | Glossary On
Versions: 1 2 3 4 5 6 7 8 9 10 11 12 13 14 15 16 17 18 19 20 21 22 23 24 25 26 27 28 29 30 31 32 33 34 35 36 37 38 39 40 41 42 43 44 45 46 47 48 49 50
882
FPUS82 KCHS 221327
OPUCHS

TEST...KCHS/KSAV Gateway Observations...TEST
National Weather Service Charleston SC
800 AM EST MON JAN 22 2018

NOTE: "fair" indicates few or no clouds below 12,000 feet with no
significant weather and/or obstructions to visibility.

SCZ050-WAZ558-NCZ071-TXZ119-213-PAZ071-DCZ001-FLZ074-172-MI076-
NYZ176-178-MAZ016-IL014-TNZ027-NJZ106-GAZ044-MD014-221400-

...Gateway Observations for Charleston International...

CITY           SKY/WX    TMP DP  RH WIND       PRES   REMARKS
Chas Airport   MOCLDY    46  43  89 CALM      30.19S FOG
Seattle        RAIN      42  39  89 S9        30.12R FOG
Charlotte      MOCLDY    45  39  79 SE5       30.18F
Dallas DFW     CLEAR     46  26  45 W10       29.96R
Dallas Love    CLEAR     45  26  47 NW10      29.98R
Philladelphia  CLOUDY    44  36  73 CALM      30.16S
Wash National  CLOUDY    49  41  74 S6        30.14R
Baltimore      CLOUDY    44  39  82 E3        30.13S
Miami          FAIR      73  68  84 E9        30.12R
Detroit        FOG       40  40 100 NE5       29.86F VSB 1/8 WCI  37
Newark         CLOUDY    42  38  85 N7        30.17R
Laguardia      CLOUDY    39  35  86 E8        30.17R WCI  33
J F K          CLOUDY    41  39  93 W3        30.19R
Boston Logan   LGT RAIN  35  33  92 CALM      30.25R FOG
Ft. Lauderdale FAIR      72  68  87 SE13      30.11R
Chicago O`Hare LGT RAIN  48  47  96 SE12      29.60F FOG
Chicago Midway RAIN      48  48 100 E8        29.62F FOG
Houston Bush   MOCLDY    59  43  55 W8        29.98R
Houston Hobby  FAIR      63  43  48 NW9       29.97R
Nashville      CLOUDY    59  42  53 S18G26    29.90F
Atlanta        CLOUDY    48  42  80 E10       30.10F

$$

GAZ044-118-TXZ119-213-NCZ071-DCZ001-MDZ014-506-PAZ021-071-NJZ106-
NYZ176-178-MAZ106-OHZ011-021-055-MIZ076-KYZ091-ILZ014-INZ047-
MNZ060-ONZ431-221400-

...Gateway Observations for Savannah International...

CITY           SKY/WX    TMP DP  RH WIND       PRES   REMARKS
Savannah Arpt  MOCLDY    45  43  93 CALM      30.18S
Atlanta        CLOUDY    48  42  80 E10       30.10F
Charlotte      MOCLDY    45  39  79 SE5       30.18F
Dallas DFW     CLEAR     46  26  45 W10       29.96R
Houston Bush   MOCLDY    59  43  55 W8        29.98R
Wash National  CLOUDY    49  41  74 S6        30.14R
Wash Dulles    MOCLDY    48  43  82 S3        30.13R
Baltimore      CLOUDY    44  39  82 E3        30.13S
Philadelphia   CLOUDY    44  36  73 CALM      30.16S
Newark         CLOUDY    42  38  85 N7        30.17R
Laguardia      CLOUDY    39  35  86 E8        30.17R WCI  33
J F K          CLOUDY    41  39  93 W3        30.19R
Boston         LGT RAIN  35  33  92 CALM      30.25R FOG
Pittsburg      CLOUDY    45  45 100 SE5       30.01F
Akron          CLOUDY    45  43  93 S10       29.95F
Cleveland      MOCLDY    50  47  89 S10       29.94F
Cincinnati     CLOUDY    53  45  74 S17       29.85F
Columbus       FAIR      49  45  84 S12       29.91F
Detroit        FOG       40  40 100 NE5       29.86F VSB 1/8 WCI  37
Chicago O`Hare LGT RAIN  48  47  96 SE12      29.60F FOG
Minneapolis    CLOUDY    32  30  92 NE17      29.81F WCI  21
Indianapolis   CLOUDY    50  45  83 SE15      29.75F
Toronto Canada DRIZZLE   36  34  93 E13       30.03F FOG     WCI  27

$$




USA.gov is the U.S. government's official web portal to all federal, state and local government web resources and services.